Temp
68 69 71 70 70 70 70 71 71 72 72 72 72 71 71 72 72 72 72 72 72 72 71 71 70 70 69 68 67 67 66 66
67 67 68 68 68 69 69 70 70 70 71 71 70 70 71 71 70 71 71 71 71 71 70 70 69 68 68 67 66 67 66 65
66 67 66 66 66 68 70 70 70 70 70 70 68 69 69 70 69 69 70 70 70 69 69 69 68 67 67 66 67 65 65 65
66 66 66 66 68 66 66 68 68 68 69 69 68 68 68 69 69 68 68 69 69 69 68 68 66 64 65 66 65 66 65 65
65 66 66 66 67 67 65 65 65 65 66 67 67 67 67 67 67 66 65 67 65 66 65 63 62 62 63 63 64 66 65 66
65 66 66 66 66 67 66 65 64 64 65 66 66 66 66 67 68 67 66 65 64 63 62 62 62 62 63 63 64 64 64 65
66 66 66 66 66 66 65 64 64 64 65 66 66 66 65 67 67 67 66 64 63 61 61 61 61 61 62 63 63 64 64 64
67 66 67 67 66 66 66 65 64 64 65 66 66 66 65 66 66 66 65 64 62 62 61 60 60 60 62 64 64 63 64 64
68 67 67 67 67 66 66 66 66 65 65 65 65 65 64 65 65 65 65 63 62 61 60 60 59 60 60 61 62 62 63 64
68 70 68 67 67 67 67 67 66 65 65 66 65 65 65 64 64 64 63 63 63 61 61 61 62 61 59 60 61 61 62 64
68 69 67 67 68 68 67 67 66 65 66 66 65 65 65 64 63 63 63 62 62 62 62 62 61 61 61 60 60 60 62 64
70 69 68 68 67 66 64 65 65 65 65 66 66 66 65 64 63 62 62 62 62 62 61 63 63 62 62 61 61 59 61 62
69 67 67 68 66 65 64 64 65 64 65 66 66 65 64 64 63 62 62 62 62 62 63 62 61 61 59 59 60 59 60 61
65 67 66 68 67 68 67 67 64 65 65 64 66 65 65 64 63 62 62 62 62 63 62 61 61 61 58 58 55 56 58 59
61 64 66 67 67 67 63 63 62 60 64 64 64 65 65 65 64 64 62 63 62 63 62 62 59 60 61 58 53 52 55 57
55 63 66 67 67 67 64 66 64 64 64 66 66 65 64 65 65 64 63 63 63 63 62 62 61 59 60 62 58 57 54 51
52 55 56 57 64 66 65 64 66 61 62 61 63 64 64 64 64 64 63 64 64 63 62 62 62 61 60 60 58 57 58 55
48 50 52 53 54 59 64 64 64 61 62 61 61 62 63 64 64 63 63 63 62 63 63 62 62 61 61 61 60 58 57 57
46 46 48 49 51 53 57 64 62 63 63 64 62 61 61 62 63 62 62 63 63 63 62 62 61 61 61 60 62 60 61 61
43 44 46 48 49 50 52 57 64 63 62 63 63 63 64 62 62 63 63 62 62 61 61 61 62 61 61 61 60 59 60 60
MSLP
1006.67 1007.13 1007.60 1007.84 1007.93 1008.17 1008.63 1008.97 1009.27 1009.69 1009.97 1010.31 1010.65 1011.06 1011.55 1011.96 1012.22 1012.46 1012.62 1012.84 1013.17 1013.56 1013.88 1014.28 1014.75 1014.99 1015.07 1015.30 1015.69 1016.25 1016.62 1016.87
1006.49 1007.04 1007.63 1008.00 1008.09 1008.28 1008.60 1009.07 1009.21 1009.65 1010.01 1010.35 1010.82 1011.18 1011.53 1011.96 1012.19 1012.50 1012.75 1013.08 1013.34 1013.84 1014.16 1014.52 1014.76 1015.02 1015.30 1015.66 1016.00 1016.47 1016.76 1017.09
1006.65 1006.82 1007.29 1007.90 1008.13 1008.48 1008.75 1009.06 1009.28 1009.63 1009.90 1010.35 1010.90 1011.39 1011.80 1012.09 1012.22 1012.47 1012.87 1013.12 1013.52 1014.08 1014.46 1014.47 1014.72 1015.05 1015.44 1016.08 1016.14 1016.53 1016.89 1016.99
1006.56 1006.89 1006.89 1007.51 1008.00 1008.53 1008.89 1009.16 1009.41 1009.65 1009.89 1010.26 1010.83 1011.33 1011.81 1012.16 1012.45 1012.58 1012.83 1013.23 1013.52 1014.04 1014.38 1014.59 1014.94 1015.28 1015.76 1016.13 1016.25 1016.42 1016.84 1017.23
1006.24 1006.48 1006.77 1007.13 1007.82 1008.35 1008.86 1009.21 1009.49 1009.73 1009.93 1010.23 1010.71 1011.23 1011.81 1012.24 1012.61 1013.02 1013.17 1013.35 1013.68 1014.11 1014.46 1014.82 1015.21 1015.55 1015.82 1016.14 1016.48 1016.55 1016.81 1017.25
1005.73 1006.13 1006.39 1006.85 1007.36 1008.17 1008.68 1009.18 1009.46 1009.78 1009.99 1010.20 1010.64 1011.16 1011.69 1012.16 1012.45 1012.97 1013.34 1013.59 1013.86 1014.17 1014.48 1014.88 1015.28 1015.68 1015.85 1016.13 1016.31 1016.68 1016.76 1017.09
1005.37 1005.66 1005.96 1006.34 1006.84 1007.71 1008.38 1008.90 1009.26 1009.49 1009.91 1010.12 1010.44 1010.98 1011.56 1011.90 1012.26 1012.75 1013.18 1013.63 1013.87 1014.26 1014.53 1014.85 1015.23 1015.69 1015.93 1016.04 1016.28 1016.66 1016.75 1016.97
1004.88 1005.31 1005.66 1006.20 1006.61 1007.06 1007.80 1008.47 1008.90 1009.25 1009.68 1010.00 1010.23 1010.67 1011.27 1011.76 1012.22 1012.66 1012.97 1013.44 1013.82 1014.13 1014.61 1015.07 1015.43 1015.76 1016.09 1016.08 1016.37 1016.72 1016.94 1017.07
1004.22 1004.86 1005.46 1005.57 1006.42 1006.80 1007.31 1007.91 1008.49 1008.99 1009.31 1009.77 1010.05 1010.42 1010.91 1011.50 1011.98 1012.47 1012.78 1013.23 1013.72 1014.21 1014.68 1015.16 1015.67 1015.89 1016.15 1016.20 1016.36 1016.63 1016.88 1017.18
1003.62 1004.17 1004.82 1005.28 1005.86 1006.64 1007.00 1007.49 1008.08 1008.62 1008.92 1009.47 1009.86 1010.17 1010.66 1011.21 1011.78 1012.17 1012.56 1013.08 1013.48 1014.15 1014.61 1015.14 1015.67 1015.91 1016.14 1016.33 1016.51 1016.60 1016.79 1017.18
1003.11 1003.51 1003.98 1004.58 1005.19 1006.26 1006.81 1007.22 1007.78 1008.18 1008.57 1009.05 1009.55 1009.95 1010.45 1010.86 1011.54 1011.99 1012.37 1013.03 1013.53 1013.98 1014.41 1014.79 1015.33 1015.78 1016.04 1016.30 1016.55 1016.68 1016.82 1016.95
1002.52 1002.68 1003.14 1003.87 1004.99 1005.83 1006.90 1007.28 1007.63 1007.93 1008.29 1008.67 1009.02 1009.61 1010.17 1010.64 1011.31 1011.85 1012.17 1012.87 1013.37 1013.82 1014.14 1014.52 1014.87 1015.41 1015.83 1016.17 1016.37 1016.63 1016.72 1016.94
1001.78 1002.39 1002.79 1003.52 1004.41 1005.22 1006.05 1006.64 1006.97 1007.48 1007.81 1008.03 1008.50 1008.98 1009.69 1010.39 1010.97 1011.58 1012.06 1012.48 1012.89 1013.43 1013.87 1014.21 1014.63 1015.05 1015.68 1016.07 1016.08 1016.43 1016.54 1016.80
1002.27 1002.35 1002.21 1002.54 1003.28 1003.65 1004.39 1005.37 1006.58 1007.12 1007.67 1008.15 1008.27 1008.57 1009.07 1009.79 1010.38 1011.06 1011.68 1012.24 1012.66 1013.01 1013.50 1013.90 1014.29 1014.75 1015.17 1015.59 1015.87 1016.52 1016.40 1016.41
1002.42 1002.14 1002.51 1002.89 1003.37 1004.09 1004.56 1005.29 1006.32 1007.27 1007.43 1007.59 1007.87 1008.32 1008.75 1009.22 1009.82 1010.43 1011.12 1011.67 1012.07 1012.47 1012.98 1013.36 1013.58 1014.16 1014.48 1014.72 1015.21 1015.52 1015.97 1016.36
1003.82 1003.11 1002.88 1002.87 1003.16 1003.76 1004.23 1004.37 1005.20 1005.66 1006.45 1006.93 1007.49 1008.13 1008.56 1008.79 1009.38 1009.93 1010.51 1011.08 1011.48 1011.89 1012.35 1012.68 1013.01 1013.40 1014.03 1013.89 1014.04 1014.17 1015.19 1016.14
1005.13 1004.34 1003.89 1003.89 1003.34 1003.50 1004.16 1004.52 1004.64 1005.26 1006.25 1006.95 1007.16 1007.65 1008.08 1008.53 1009.00 1009.51 1009.92 1010.42 1010.86 1011.29 1011.74 1012.08 1012.30 1012.60 1012.86 1013.19 1013.72 1013.87 1014.01 1014.27
1005.91 1005.49 1005.20 1004.86 1004.68 1003.93 1004.04 1004.46 1004.60 1004.91 1005.59 1006.31 1006.66 1007.14 1007.54 1007.92 1008.32 1008.78 1009.21 1009.72 1010.14 1010.53 1011.00 1011.33 1011.57 1011.94 1012.09 1012.19 1012.31 1012.88 1013.04 1013.27
1006.46 1006.29 1005.94 1005.51 1005.26 1004.81 1004.47 1004.22 1004.41 1004.45 1004.56 1005.11 1005.92 1006.43 1006.89 1006.98 1007.44 1008.11 1008.55 1008.99 1009.37 1009.74 1010.12 1010.56 1010.92 1011.07 1011.24 1011.34 1011.43 1011.69 1012.03 1012.29
1006.99 1006.93 1006.22 1006.12 1005.96 1005.41 1005.09 1004.26 1003.82 1004.10 1004.33 1004.61 1004.95 1005.45 1005.70 1006.22 1006.85 1007.38 1007.83 1008.21 1008.72 1009.07 1009.45 1009.81 1010.14 1010.32 1010.40 1010.40 1010.41 1011.09 1011.33 1011.72
Wind_Speed
8 9 10 10 11 12 12 12 14 13 13 12 13 13 16 15 14 14 13 12 11 11 12 11 11 11 12 12 13 12 6 5
10 7 6 6 6 11 12 12 12 12 12 12 11 14 16 16 15 13 13 11 10 11 11 10 10 10 11 10 11 11 7 5
9 11 9 6 6 6 10 11 11 12 12 12 10 7 10 12 11 13 13 11 10 11 10 10 11 12 11 6 12 3 4 4
10 10 11 9 6 5 5 6 5 6 7 8 6 7 7 8 9 13 13 11 10 9 10 9 8 4 5 7 2 6 4 3
11 11 10 11 8 6 3 3 3 3 6 7 6 6 6 5 4 4 4 8 3 5 5 3 5 4 4 4 3 6 5 4
13 12 12 11 7 7 6 4 3 3 5 8 7 5 6 7 5 6 5 3 4 4 4 5 5 5 6 5 5 4 2 3
14 13 12 12 11 8 7 6 5 5 5 7 7 7 7 8 7 6 6 4 4 4 4 4 4 5 3 4 5 5 4 3
13 14 13 12 10 12 9 7 6 5 5 7 8 7 7 8 8 7 7 6 4 4 5 4 4 4 4 4 4 4 4 4
15 15 13 14 12 10 9 8 7 7 6 7 9 8 9 9 8 8 8 5 6 4 4 3 3 3 4 4 4 5 4 4
14 13 14 14 12 9 8 8 8 7 7 7 9 9 10 8 7 7 6 5 6 5 6 5 5 4 3 3 3 4 6 6
14 14 16 15 13 9 8 9 8 7 7 7 9 9 10 9 7 6 7 6 6 6 6 5 5 5 4 3 4 4 6 7
14 14 16 15 9 7 4 6 6 7 8 8 11 9 10 8 6 7 8 7 6 6 7 7 6 7 5 5 5 4 5 6
16 15 13 12 10 11 9 11 9 8 8 11 11 10 11 10 7 7 7 9 9 9 7 7 5 4 3 3 3 5 7 6
6 10 14 15 12 12 7 9 5 5 5 7 9 10 11 11 10 8 9 7 8 10 9 5 5 7 4 3 3 1 3 6
6 7 9 9 7 5 4 6 5 3 8 9 10 10 10 11 11 10 9 9 9 10 10 10 7 6 9 4 3 4 3 2
13 9 7 5 6 9 11 12 10 8 6 7 9 10 10 11 12 11 10 8 9 9 9 10 9 8 7 8 3 5 4 3
11 11 11 11 2 9 8 9 7 4 4 8 9 10 11 11 12 12 11 9 10 10 10 10 9 8 8 6 4 3 4 4
10 12 10 10 9 6 9 10 9 7 9 9 9 7 9 12 11 11 11 11 10 10 10 12 11 10 9 10 10 7 7 5
11 12 9 9 9 8 7 8 7 11 11 11 10 8 8 11 13 11 10 10 11 10 10 10 10 11 13 11 10 10 7 8
15 13 12 10 7 7 8 10 7 7 8 8 8 10 10 8 12 12 12 11 10 9 7 8 10 10 15 13 10 10 8 9
Wind_Direction
145 156 165 166 158 155 159 164 163 164 160 161 157 145 150 152 148 146 146 150 152 135 133 133 136 139 128 127 140 132 132 132
149 144 152 160 158 156 161 170 165 164 162 162 159 150 155 156 156 154 155 157 157 132 127 126 124 127 128 136 126 134 144 147
159 157 150 150 142 163 160 165 166 167 162 166 154 153 159 164 161 157 161 170 166 139 143 135 134 140 131 149 136 133 130 145
170 167 155 148 152 156 157 165 166 166 162 165 153 147 159 167 169 167 168 177 175 155 154 148 132 117 131 147 168 154 153 174
182 169 160 154 157 162 152 152 156 163 158 158 154 142 153 156 161 168 165 181 172 144 157 144 136 125 137 149 156 158 160 194
178 172 166 166 153 168 166 164 165 168 171 154 156 151 153 164 168 174 178 174 168 158 151 151 144 148 151 160 148 168 169 195
187 175 174 170 162 165 167 175 176 174 169 167 161 162 164 167 174 172 180 169 169 163 147 149 145 149 165 160 154 182 174 160
178 183 176 171 175 170 174 172 171 167 173 176 167 166 163 171 174 180 181 177 163 162 165 162 151 151 177 180 171 170 173 176
185 182 181 173 182 173 171 173 173 178 179 172 172 167 169 168 176 183 184 172 155 143 135 115 131 144 189 189 177 164 158 188
182 183 182 178 176 180 175 174 174 177 173 176 177 172 171 167 174 180 166 167 167 168 170 169 195 184 172 194 187 165 167 173
187 183 181 181 176 177 179 172 176 172 174 178 182 177 175 172 179 176 161 169 178 179 183 184 189 202 194 186 189 171 172 170
198 188 185 177 164 141 138 164 171 174 182 185 176 180 178 175 176 173 169 176 181 180 186 195 198 205 183 205 189 167 167 178
189 186 184 169 165 168 169 192 187 187 188 185 181 172 176 180 179 179 179 188 190 188 189 192 194 164 119 200 172 168 170 180
246 209 178 182 183 191 182 173 187 179 167 181 189 180 179 181 179 184 185 184 189 191 194 189 194 177 156 177 172 211 197 171
335 170 176 194 186 160 81 106 101 121 190 193 198 191 185 185 185 182 183 187 195 195 194 200 198 188 191 174 168 183 138 151
15 20 133 165 153 170 177 181 184 203 200 192 193 191 193 194 189 186 185 191 195 196 194 200 188 197 199 229 225 139 174 149
10 16 32 17 321 168 182 199 191 132 147 177 190 197 195 194 196 197 195 200 205 195 196 199 206 206 204 191 201 198 217 148
12 14 22 9 351 345 184 200 183 171 172 180 188 193 197 197 192 193 195 201 201 206 201 207 208 215 219 215 203 195 193 167
15 6 6 6 346 333 320 217 200 208 187 188 182 188 195 199 186 193 196 198 202 199 193 206 217 218 219 220 207 205 191 196
10 3 358 353 343 328 306 287 219 209 202 202 198 204 208 179 195 196 200 191 192 191 198 212 218 224 223 225 200 196 185 192